Tracking 29892 objects as of 21-Nov-2024
HD Live streaming from Space Station
objects crossing your sky now

STARLINK-30422

Track STARLINK-30422 now!
10-day predictions
STARLINK-30422 is classified as:


NORAD ID: 57826
Int'l Code: 2023-138U
Perigee: 565.6 km
Apogee: 566.8 km
Inclination: 43.0 °
Period: 95.8 minutes
Semi major axis: 6937 km
RCS: Unknown
Launch date: September 9, 2023
Source: United States (US)
Launch site: AIR FORCE EASTERN TEST RANGE (AFETR)
Your satellite tracking list
Your tracking list is empty




NASA's NSSDC Master Catalog

Two Line Element Set (TLE):
1 57826U 23138U   24324.99558155 -.00000502  00000-0 -22081-4 0  9993
2 57826  43.0050 295.0897 0000889 283.9564  76.1179 15.02533544 67303
Source of the keplerian elements: AFSPC